User: anonymous   Login
Location: Caltech
(34.1382°N, 118.1253°W)
Time: 23:53:31
(UTC-07:00)
Language:

Tiros 1 despin weight - Orbit

View from above orbital plane
View from above orbital plane
View from above satellite
View from above satellite

Ground track
Ground track

The orbit data is extracted from the following two-line orbital elements,

1   115U 60002D   18114.29379137 +.00000091 +00000-0 +38132-4 0  9992
2   115 048.1663 088.8703 0034312 027.8237 332.4501 14.83273294075242
Epoch (UTC): 24 April 2018 07:03:03
Eccentricity: 0.0034312
inclination: 48.1663°
perigee height: 595 km
apogee height: 643 km
right ascension of ascending node: 88.8703°
argument of perigee: 27.8237°
revolutions per day: 14.83273294
mean anomaly at epoch: 332.4501°
orbit number at epoch: 7524

The dashed part of the orbit path shows where the satellite is in the earth's shadow,  

DLR